TRA6423 EHAM-LPPD

Flight info

Callsign TRA6423
Flight time 4h 12m
Altitude 34000
Route IDRID L980 MANGO L620 SAM/N0443F350 M195 LORKU DCT LOTEE DCT PETEK DCT ERPES/M078F360 DCT LENSI DCT BEKUN DCT OMOBI
Aircraft A21N/M-SBDE2E3FGHIJ1J5M1P2RWXYZ/LB1D1G1

Departure

Time 2026-05-07 08:54
Airport Amsterdam Airport Schiphol (EHAM)

Arrival

Time 2026-05-07 13:06
Airport João Paulo II Airport (LPPD)
Time Latitude Longitude Altitude Speed Heading
2026-05-07 08:26 52.30506 4.76806 4 ft 0 kts 314°
2026-05-07 08:43 52.30504 4.76809 4 ft 3 kts 314°
2026-05-07 08:43 52.30490 4.76833 4 ft 3 kts 314°
2026-05-07 08:44 52.30471 4.76865 4 ft 5 kts 313°
2026-05-07 08:44 52.30455 4.76895 4 ft 5 kts 307°
2026-05-07 08:44 52.30449 4.76924 4 ft 5 kts 240°
2026-05-07 08:44 52.30463 4.76957 4 ft 4 kts 218°
2026-05-07 08:45 52.30485 4.76972 4 ft 4 kts 189°
2026-05-07 08:45 52.30509 4.76968 4 ft 4 kts 151°
2026-05-07 08:45 52.30530 4.76945 4 ft 2 kts 148°
2026-05-07 08:45 52.30531 4.76944 4 ft 1 kts 148°
2026-05-07 08:48 52.30519 4.76957 4 ft 5 kts 148°
2026-05-07 08:48 52.30444 4.76915 4 ft 16 kts 237°
2026-05-07 08:48 52.30384 4.76752 4 ft 17 kts 239°
2026-05-07 08:48 52.30320 4.76584 4 ft 18 kts 237°
2026-05-07 08:49 52.30250 4.76412 4 ft 19 kts 236°
2026-05-07 08:49 52.30178 4.76232 4 ft 19 kts 237°
2026-05-07 08:49 52.30109 4.76041 4 ft 20 kts 239°
2026-05-07 08:49 52.30036 4.75846 4 ft 20 kts 238°
2026-05-07 08:50 52.29959 4.75646 4 ft 21 kts 238°
2026-05-07 08:50 52.29879 4.75439 4 ft 22 kts 238°
2026-05-07 08:50 52.29840 4.75207 4 ft 23 kts 297°
2026-05-07 08:50 52.29942 4.75010 4 ft 23 kts 310°
2026-05-07 08:51 52.30050 4.74809 5 ft 24 kts 311°
2026-05-07 08:51 52.30162 4.74600 15 ft 25 kts 311°
2026-05-07 08:51 52.30276 4.74386 15 ft 22 kts 310°
2026-05-07 08:51 52.30372 4.74209 5 ft 20 kts 310°
2026-05-07 08:52 52.30421 4.74052 4 ft 15 kts 258°
2026-05-07 08:52 52.30408 4.73877 3 ft 16 kts 278°
2026-05-07 08:52 52.30429 4.73759 2 ft 7 kts 329°
2026-05-07 08:52 52.30480 4.73764 3 ft 8 kts
2026-05-07 08:53 52.30638 4.73780 2 ft 54 kts
2026-05-07 08:53 52.31233 4.73836 3 ft 117 kts
2026-05-07 08:53 52.32230 4.73930 5 ft 167 kts
2026-05-07 08:53 52.33420 4.74027 479 ft 171 kts
2026-05-07 08:54 52.34576 4.73829 1226 ft 166 kts 345°
2026-05-07 08:54 52.35662 4.73232 1881 ft 166 kts 342°
2026-05-07 08:54 52.36773 4.72633 2479 ft 171 kts 344°
2026-05-07 08:54 52.37932 4.72088 3132 ft 177 kts 346°
2026-05-07 08:55 52.39148 4.71529 3697 ft 185 kts 344°
2026-05-07 08:55 52.40364 4.70657 4232 ft 198 kts 328°
2026-05-07 08:55 52.41376 4.69059 4778 ft 213 kts 304°
2026-05-07 08:55 52.41778 4.66618 4995 ft 241 kts 266°
2026-05-07 08:56 52.41273 4.63822 5155 ft 273 kts 245°
2026-05-07 08:56 52.40386 4.60951 5524 ft 291 kts 243°
2026-05-07 08:56 52.39395 4.57979 6008 ft 303 kts 241°
2026-05-07 08:56 52.38310 4.54945 6526 ft 314 kts 239°
2026-05-07 08:57 52.37161 4.51893 7263 ft 314 kts 238°
2026-05-07 08:57 52.36025 4.48891 8308 ft 306 kts 238°
2026-05-07 08:57 52.34920 4.45970 9430 ft 298 kts 238°
2026-05-07 08:57 52.33841 4.43112 10419 ft 296 kts 239°
2026-05-07 08:58 52.32728 4.40166 10768 ft 314 kts 239°
2026-05-07 08:58 52.31543 4.37041 11085 ft 331 kts 239°
2026-05-07 08:58 52.30313 4.33800 11660 ft 339 kts 239°
2026-05-07 08:58 52.29063 4.30516 12361 ft 342 kts 239°
2026-05-07 08:59 52.27803 4.27210 13090 ft 345 kts 239°
2026-05-07 08:59 52.26529 4.23873 13798 ft 348 kts 239°
2026-05-07 08:59 52.25243 4.20509 14419 ft 351 kts 239°
2026-05-07 08:59 52.23959 4.17153 15000 ft 355 kts 239°
2026-05-07 09:00 52.22645 4.13731 15631 ft 357 kts 239°
2026-05-07 09:00 52.21304 4.10238 16258 ft 360 kts 239°
2026-05-07 09:00 52.19988 4.06809 16853 ft 363 kts 239°
2026-05-07 09:00 52.18625 4.03265 17432 ft 366 kts 238°
2026-05-07 09:01 52.17265 3.99738 18045 ft 369 kts 238°
2026-05-07 09:01 52.15913 3.96236 18587 ft 372 kts 238°
2026-05-07 09:01 52.14513 3.92617 19084 ft 375 kts 238°
2026-05-07 09:01 52.13120 3.89012 19557 ft 378 kts 238°
2026-05-07 09:02 52.11714 3.85382 20059 ft 380 kts 238°
2026-05-07 09:02 52.10320 3.81789 20533 ft 382 kts 238°
2026-05-07 09:02 52.08894 3.78119 20981 ft 385 kts 238°
2026-05-07 09:02 52.07438 3.74376 21448 ft 388 kts 238°
2026-05-07 09:03 52.06008 3.70711 21937 ft 390 kts 238°
2026-05-07 09:03 52.04548 3.66974 22388 ft 393 kts 238°
2026-05-07 09:03 52.03077 3.63208 22823 ft 396 kts 238°
2026-05-07 09:03 52.01596 3.59422 23305 ft 398 kts 238°
2026-05-07 09:04 52.00101 3.55616 23747 ft 401 kts 238°
2026-05-07 09:04 51.98596 3.51785 24106 ft 404 kts 238°
2026-05-07 09:04 51.97081 3.47931 24503 ft 406 kts 238°
2026-05-07 09:04 51.95561 3.44068 24903 ft 408 kts 238°
2026-05-07 09:05 51.94028 3.40189 25268 ft 410 kts 238°
2026-05-07 09:05 51.92485 3.36285 25631 ft 412 kts 238°
2026-05-07 09:05 51.90936 3.32366 26028 ft 414 kts 238°
2026-05-07 09:05 51.89378 3.28433 26381 ft 416 kts 238°
2026-05-07 09:06 51.87810 3.24480 26720 ft 418 kts 238°
2026-05-07 09:06 51.86264 3.20488 27080 ft 420 kts 241°
2026-05-07 09:06 51.85070 3.16184 27391 ft 421 kts 253°
2026-05-07 09:06 51.84470 3.11548 27691 ft 423 kts 263°
2026-05-07 09:07 51.84168 3.06813 28019 ft 424 kts 265°
2026-05-07 09:07 51.83897 3.02055 28358 ft 426 kts 265°
2026-05-07 09:07 51.83613 2.97278 28656 ft 428 kts 264°
2026-05-07 09:07 51.83308 2.92485 28941 ft 430 kts 264°
2026-05-07 09:08 51.82990 2.87660 29202 ft 433 kts 264°
2026-05-07 09:08 51.82666 2.82816 29491 ft 435 kts 264°
2026-05-07 09:08 51.82347 2.78062 29750 ft 437 kts 264°
2026-05-07 09:08 51.82014 2.73164 29995 ft 440 kts 264°
2026-05-07 09:09 51.81574 2.68263 30266 ft 442 kts 257°
2026-05-07 09:09 51.80704 2.63503 30510 ft 443 kts 252°
2026-05-07 09:09 51.79740 2.58763 30724 ft 445 kts 252°
2026-05-07 09:09 51.78777 2.54005 30945 ft 446 kts 252°
2026-05-07 09:10 51.77833 2.49245 31281 ft 444 kts 252°
2026-05-07 09:10 51.76908 2.44513 31655 ft 441 kts 252°
2026-05-07 09:10 51.75985 2.39791 31948 ft 440 kts 253°
2026-05-07 09:10 51.75063 2.35086 32221 ft 440 kts 253°
2026-05-07 09:11 51.74140 2.30384 32492 ft 440 kts 252°
2026-05-07 09:11 51.73216 2.25678 32695 ft 440 kts 252°
2026-05-07 09:11 51.72289 2.20974 32968 ft 439 kts 252°
2026-05-07 09:11 51.71364 2.16286 33229 ft 439 kts 252°
2026-05-07 09:12 51.70436 2.11601 33433 ft 439 kts 252°
2026-05-07 09:12 51.69518 2.06984 33638 ft 439 kts 252°
2026-05-07 09:12 51.68588 2.02307 33904 ft 438 kts 252°
2026-05-07 09:12 51.67656 1.97639 34091 ft 438 kts 252°
2026-05-07 09:13 51.66720 1.92968 34239 ft 438 kts 252°
2026-05-07 09:13 51.65784 1.88296 34357 ft 439 kts 252°
2026-05-07 09:13 51.64845 1.83614 34469 ft 440 kts 252°
2026-05-07 09:13 51.63900 1.78922 34576 ft 441 kts 252°
2026-05-07 09:14 51.62952 1.74231 34734 ft 441 kts 252°
2026-05-07 09:14 51.62001 1.69545 34884 ft 440 kts 252°
2026-05-07 09:14 51.61052 1.64866 35010 ft 441 kts 252°
2026-05-07 09:14 51.60097 1.60177 35112 ft 441 kts 252°
2026-05-07 09:15 51.58187 1.50812 35109 ft 441 kts 252°
2026-05-07 09:15 51.56267 1.41454 35090 ft 441 kts 251°
2026-05-07 09:16 51.54346 1.32125 35090 ft 439 kts 251°
2026-05-07 09:16 51.52418 1.22818 35092 ft 440 kts 251°
2026-05-07 09:17 51.50482 1.13509 35088 ft 439 kts 251°
2026-05-07 09:17 51.48537 1.04214 35087 ft 440 kts 251°
2026-05-07 09:18 51.46583 0.94922 35089 ft 439 kts 251°
2026-05-07 09:18 51.44621 0.85601 35084 ft 442 kts 251°
2026-05-07 09:19 51.42644 0.76277 35083 ft 442 kts 251°
2026-05-07 09:19 51.40664 0.66966 35083 ft 440 kts 251°
2026-05-07 09:20 51.38675 0.57669 35085 ft 442 kts 251°
2026-05-07 09:20 51.36684 0.48395 35084 ft 441 kts 251°
2026-05-07 09:21 51.34675 0.39087 35085 ft 441 kts 250°
2026-05-07 09:21 51.32663 0.29812 34947 ft 440 kts 251°
2026-05-07 09:22 51.30658 0.20599 34955 ft 439 kts 250°
2026-05-07 09:22 51.28645 0.11398 34978 ft 440 kts 250°
2026-05-07 09:23 51.26625 0.02210 35013 ft 440 kts 250°
2026-05-07 09:23 51.24598 -0.06987 35081 ft 440 kts 250°
2026-05-07 09:24 51.22563 -0.16175 35081 ft 440 kts 250°
2026-05-07 09:24 51.20532 -0.25301 35080 ft 439 kts 250°
2026-05-07 09:25 51.18480 -0.34474 35082 ft 439 kts 250°
2026-05-07 09:25 51.16421 -0.43646 35083 ft 439 kts 250°
2026-05-07 09:26 51.14355 -0.52802 35082 ft 439 kts 250°
2026-05-07 09:26 51.12281 -0.61953 35081 ft 439 kts 250°
2026-05-07 09:27 51.10199 -0.71099 35080 ft 439 kts 250°
2026-05-07 09:28 51.07067 -0.84793 35081 ft 440 kts 250°
2026-05-07 09:28 51.04971 -0.93911 35080 ft 439 kts 250°
2026-05-07 09:29 51.02862 -1.03038 35080 ft 440 kts 249°
2026-05-07 09:29 51.00749 -1.12144 35081 ft 440 kts 249°
2026-05-07 09:30 50.98624 -1.21261 35082 ft 439 kts 249°
2026-05-07 09:30 50.96365 -1.30259 35085 ft 440 kts 242°
2026-05-07 09:30 50.94685 -1.34314 35079 ft 440 kts 230°
2026-05-07 09:31 50.92510 -1.37707 35086 ft 439 kts 218°
2026-05-07 09:31 50.87408 -1.43101 35087 ft 440 kts 213°
2026-05-07 09:32 50.82278 -1.48319 35077 ft 439 kts 213°
2026-05-07 09:32 50.77169 -1.53596 35077 ft 438 kts 214°
2026-05-07 09:33 50.72068 -1.58866 35077 ft 437 kts 214°
2026-05-07 09:33 50.66960 -1.64131 35078 ft 438 kts 214°
2026-05-07 09:34 50.62717 -1.68494 35071 ft 438 kts 214°
2026-05-07 09:34 50.57627 -1.73716 35066 ft 436 kts 214°
2026-05-07 09:35 50.52540 -1.78922 35068 ft 436 kts 214°
2026-05-07 09:35 50.47452 -1.84115 35072 ft 436 kts 214°
2026-05-07 09:36 50.42363 -1.89293 35066 ft 436 kts 214°
2026-05-07 09:36 50.37270 -1.94461 35063 ft 435 kts 214°
2026-05-07 09:37 50.32186 -1.99608 35064 ft 435 kts 214°
2026-05-07 09:37 50.27097 -2.04745 35061 ft 435 kts 214°
2026-05-07 09:38 50.21998 -2.09846 35064 ft 435 kts 213°
2026-05-07 09:38 50.16893 -2.14799 35057 ft 436 kts 213°
2026-05-07 09:39 50.11763 -2.19773 35060 ft 435 kts 213°
2026-05-07 09:39 50.06632 -2.24750 35062 ft 435 kts 213°
2026-05-07 09:40 50.01501 -2.29716 35064 ft 435 kts 213°
2026-05-07 09:40 49.96362 -2.34674 35065 ft 435 kts 213°
2026-05-07 09:41 49.91058 -2.39179 35069 ft 434 kts 207°
2026-05-07 09:41 49.85577 -2.43175 35073 ft 434 kts 206°
2026-05-07 09:42 49.80098 -2.47162 35073 ft 435 kts 206°
2026-05-07 09:42 49.74617 -2.51155 35072 ft 435 kts 206°
2026-05-07 09:43 49.69131 -2.55142 35065 ft 434 kts 206°
2026-05-07 09:43 49.63655 -2.59112 35055 ft 434 kts 206°
2026-05-07 09:44 49.58177 -2.63072 35051 ft 434 kts 206°
2026-05-07 09:44 49.52696 -2.67025 35051 ft 434 kts 206°
2026-05-07 09:45 49.47220 -2.70965 35049 ft 434 kts 206°
2026-05-07 09:45 49.41791 -2.74861 35053 ft 433 kts 206°
2026-05-07 09:46 49.36321 -2.78777 35056 ft 434 kts 206°
2026-05-07 09:46 49.30858 -2.82678 35050 ft 433 kts 206°
2026-05-07 09:47 49.25388 -2.86576 35039 ft 433 kts 206°
2026-05-07 09:47 49.19916 -2.90463 35048 ft 434 kts 206°
2026-05-07 09:48 49.14443 -2.94340 35043 ft 434 kts 206°
2026-05-07 09:48 49.08969 -2.98213 35043 ft 433 kts 206°
2026-05-07 09:49 49.03493 -3.02075 35026 ft 434 kts 206°
2026-05-07 09:49 48.98009 -3.05935 35031 ft 434 kts 206°
2026-05-07 09:50 48.92535 -3.09778 35032 ft 433 kts 206°
2026-05-07 09:50 48.87067 -3.13608 35028 ft 433 kts 206°
2026-05-07 09:51 48.81594 -3.17431 35019 ft 433 kts 206°
2026-05-07 09:51 48.76122 -3.21245 35019 ft 433 kts 206°
2026-05-07 09:52 48.70650 -3.25049 35021 ft 433 kts 205°
2026-05-07 09:52 48.65172 -3.28848 35020 ft 433 kts 205°
2026-05-07 09:53 48.59697 -3.32638 35012 ft 433 kts 205°
2026-05-07 09:53 48.54213 -3.36420 35012 ft 434 kts 205°
2026-05-07 09:54 48.48737 -3.40192 35019 ft 433 kts 205°
2026-05-07 09:54 48.43293 -3.43937 35017 ft 433 kts 205°
2026-05-07 09:55 48.37821 -3.47686 35002 ft 431 kts 205°
2026-05-07 09:55 48.32359 -3.51418 35016 ft 431 kts 205°
2026-05-07 09:56 48.26896 -3.55144 35008 ft 431 kts 205°
2026-05-07 09:56 48.21433 -3.58860 35016 ft 431 kts 205°
2026-05-07 09:57 48.15974 -3.62567 35010 ft 431 kts 205°
2026-05-07 09:57 48.10511 -3.66267 35012 ft 431 kts 205°
2026-05-07 09:58 48.05052 -3.69957 35015 ft 431 kts 205°
2026-05-07 09:58 47.99590 -3.73638 35020 ft 431 kts 205°
2026-05-07 09:59 47.94128 -3.77311 35018 ft 431 kts 205°
2026-05-07 09:59 47.88673 -3.80972 35036 ft 429 kts 205°
2026-05-07 10:00 47.83230 -3.84615 35027 ft 429 kts 204°
2026-05-07 10:00 47.77787 -3.88253 35033 ft 429 kts 204°
2026-05-07 10:01 47.72343 -3.91882 35031 ft 429 kts 204°
2026-05-07 10:01 47.66896 -3.95503 35030 ft 429 kts 204°
2026-05-07 10:02 47.61448 -3.99115 35033 ft 429 kts 204°
2026-05-07 10:02 47.56003 -4.02719 35029 ft 429 kts 204°
2026-05-07 10:03 47.50547 -4.06320 35025 ft 429 kts 204°
2026-05-07 10:03 47.45090 -4.09916 35032 ft 429 kts 204°
2026-05-07 10:04 47.39672 -4.13478 35034 ft 429 kts 204°
2026-05-07 10:04 47.34178 -4.17081 35035 ft 429 kts 204°
2026-05-07 10:05 47.28720 -4.20652 35035 ft 429 kts 204°
2026-05-07 10:05 47.23298 -4.24191 35036 ft 428 kts 204°
2026-05-07 10:06 47.17805 -4.27770 35034 ft 428 kts 204°
2026-05-07 10:06 47.12343 -4.31318 35036 ft 428 kts 204°
2026-05-07 10:07 47.06922 -4.34835 35034 ft 428 kts 204°
2026-05-07 10:07 47.01471 -4.38363 35034 ft 428 kts 204°
2026-05-07 10:08 46.96015 -4.41885 35035 ft 429 kts 204°
2026-05-07 10:08 46.90562 -4.45396 35034 ft 429 kts 204°
2026-05-07 10:09 46.85107 -4.48901 35034 ft 428 kts 204°
2026-05-07 10:09 46.79655 -4.52399 35037 ft 428 kts 204°
2026-05-07 10:10 46.74203 -4.55885 35037 ft 428 kts 204°
2026-05-07 10:10 46.68755 -4.59363 35033 ft 428 kts 204°
2026-05-07 10:11 46.63302 -4.62836 35033 ft 428 kts 204°
2026-05-07 10:11 46.57847 -4.66302 35033 ft 428 kts 204°
2026-05-07 10:12 46.52393 -4.69763 35033 ft 428 kts 204°
2026-05-07 10:12 46.46934 -4.73216 35028 ft 428 kts 204°
2026-05-07 10:13 46.41482 -4.76658 35033 ft 427 kts 204°
2026-05-07 10:13 46.36030 -4.80094 35031 ft 427 kts 204°
2026-05-07 10:14 46.30577 -4.83520 35031 ft 427 kts 204°
2026-05-07 10:14 46.25121 -4.86945 35026 ft 427 kts 204°
2026-05-07 10:15 46.19664 -4.90359 35025 ft 427 kts 204°
2026-05-07 10:15 46.14242 -4.93746 35024 ft 427 kts 204°
2026-05-07 10:16 46.08782 -4.97150 35021 ft 427 kts 204°
2026-05-07 10:16 46.03320 -5.00547 35018 ft 427 kts 204°
2026-05-07 10:17 45.97861 -5.03932 35021 ft 427 kts 204°
2026-05-07 10:17 45.92400 -5.07313 35017 ft 427 kts 204°
2026-05-07 10:18 45.86941 -5.10690 35021 ft 427 kts 204°
2026-05-07 10:18 45.81476 -5.14058 35017 ft 428 kts 204°
2026-05-07 10:19 45.76008 -5.17418 35014 ft 428 kts 204°
2026-05-07 10:19 45.70537 -5.20776 35010 ft 428 kts 204°
2026-05-07 10:20 45.65064 -5.24132 35006 ft 428 kts 204°
2026-05-07 10:20 45.59587 -5.27479 35005 ft 428 kts 204°
2026-05-07 10:21 45.54112 -5.30819 35001 ft 428 kts 203°
2026-05-07 10:21 45.48673 -5.34129 35008 ft 428 kts 203°
2026-05-07 10:22 45.43197 -5.37455 35000 ft 428 kts 203°
2026-05-07 10:22 45.37710 -5.40781 35000 ft 428 kts 203°
2026-05-07 10:23 45.32215 -5.44105 35004 ft 430 kts 204°
2026-05-07 10:23 45.26712 -5.47425 34999 ft 430 kts 204°
2026-05-07 10:24 45.22091 -5.50210 34993 ft 431 kts 204°
2026-05-07 10:24 45.16603 -5.53509 34995 ft 431 kts 204°
2026-05-07 10:25 45.11078 -5.56822 34987 ft 431 kts 204°
2026-05-07 10:25 45.05550 -5.60132 34991 ft 431 kts 204°
2026-05-07 10:26 45.00026 -5.63433 34988 ft 432 kts 204°
2026-05-07 10:26 44.94501 -5.66727 34984 ft 431 kts 204°
2026-05-07 10:27 44.88969 -5.70018 34976 ft 431 kts 204°
2026-05-07 10:27 44.83433 -5.73306 34978 ft 435 kts 204°
2026-05-07 10:28 44.77857 -5.76611 34975 ft 434 kts 204°
2026-05-07 10:28 44.72278 -5.79909 34974 ft 435 kts 204°
2026-05-07 10:29 44.67139 -5.84265 34968 ft 434 kts 223°
2026-05-07 10:29 44.65148 -5.87428 34969 ft 431 kts 235°
2026-05-07 10:29 44.63684 -5.91086 34969 ft 431 kts 246°
2026-05-07 10:30 44.60386 -6.02852 34966 ft 431 kts 248°
2026-05-07 10:30 44.58159 -6.10677 34969 ft 432 kts 248°
2026-05-07 10:31 44.55904 -6.18507 34965 ft 435 kts 248°
2026-05-07 10:31 44.53640 -6.26345 34967 ft 433 kts 248°
2026-05-07 10:32 44.51378 -6.34134 34959 ft 434 kts 248°
2026-05-07 10:32 44.49110 -6.41946 34955 ft 434 kts 248°
2026-05-07 10:33 44.46826 -6.49769 34957 ft 434 kts 249°
2026-05-07 10:33 44.44527 -6.57621 34959 ft 436 kts 249°
2026-05-07 10:34 44.42230 -6.65456 34950 ft 435 kts 248°
2026-05-07 10:34 44.39916 -6.73310 34950 ft 435 kts 249°
2026-05-07 10:35 44.37601 -6.81147 34952 ft 437 kts 248°
2026-05-07 10:35 44.35277 -6.88993 34948 ft 438 kts 249°
2026-05-07 10:36 44.32939 -6.96862 34949 ft 438 kts 249°
2026-05-07 10:36 44.30599 -7.04721 34945 ft 438 kts 249°
2026-05-07 10:37 44.28250 -7.12574 34939 ft 438 kts 249°
2026-05-07 10:37 44.26171 -7.19506 34943 ft 438 kts 249°
2026-05-07 10:38 44.23830 -7.27281 34939 ft 438 kts 250°
2026-05-07 10:38 44.21469 -7.35103 34944 ft 438 kts 250°
2026-05-07 10:39 44.19106 -7.42922 34936 ft 438 kts 250°
2026-05-07 10:39 44.16735 -7.50738 34937 ft 438 kts 250°
2026-05-07 10:40 44.14352 -7.58551 34937 ft 438 kts 250°
2026-05-07 10:40 44.11973 -7.66344 34934 ft 436 kts 250°
2026-05-07 10:41 44.09592 -7.74118 34937 ft 436 kts 250°
2026-05-07 10:41 44.07210 -7.81880 34938 ft 436 kts 250°
2026-05-07 10:42 44.04820 -7.89633 34937 ft 436 kts 250°
2026-05-07 10:42 44.02424 -7.97383 34934 ft 436 kts 250°
2026-05-07 10:43 44.00022 -8.05127 34931 ft 436 kts 250°
2026-05-07 10:43 43.97611 -8.12869 34931 ft 436 kts 250°
2026-05-07 10:44 43.95200 -8.20599 34934 ft 436 kts 250°
2026-05-07 10:44 43.92788 -8.28323 34934 ft 436 kts 250°
2026-05-07 10:45 43.90384 -8.35994 34920 ft 436 kts 249°
2026-05-07 10:45 43.87962 -8.43692 34928 ft 435 kts 249°
2026-05-07 10:46 43.85537 -8.51374 34929 ft 435 kts 249°
2026-05-07 10:46 43.83114 -8.59044 34928 ft 434 kts 249°
2026-05-07 10:47 43.80684 -8.66701 34930 ft 434 kts 249°
2026-05-07 10:47 43.78249 -8.74353 34921 ft 434 kts 249°
2026-05-07 10:48 43.75815 -8.81970 34929 ft 433 kts 249°
2026-05-07 10:48 43.73378 -8.89590 34931 ft 433 kts 249°
2026-05-07 10:49 43.70940 -8.97200 34936 ft 433 kts 249°
2026-05-07 10:49 43.68488 -9.04797 34930 ft 433 kts 249°
2026-05-07 10:50 43.66038 -9.12386 34922 ft 432 kts 250°
2026-05-07 10:50 43.63588 -9.19948 34933 ft 431 kts 250°
2026-05-07 10:51 43.61137 -9.27494 34939 ft 431 kts 249°
2026-05-07 10:51 43.58682 -9.35050 34939 ft 432 kts 249°
2026-05-07 10:52 43.56217 -9.42595 34945 ft 432 kts 249°
2026-05-07 10:52 43.53758 -9.50081 34940 ft 429 kts 250°
2026-05-07 10:53 43.51299 -9.57567 34945 ft 429 kts 250°
2026-05-07 10:53 43.48835 -9.65046 34946 ft 429 kts 249°
2026-05-07 10:54 43.46364 -9.72527 34948 ft 431 kts 249°
2026-05-07 10:54 43.43854 -9.80115 34952 ft 440 kts 249°
2026-05-07 10:55 43.41308 -9.87768 34943 ft 438 kts 249°
2026-05-07 10:55 43.38778 -9.95369 34945 ft 437 kts 249°
2026-05-07 10:56 43.36245 -10.02954 34945 ft 436 kts 249°
2026-05-07 10:56 43.33710 -10.10527 34945 ft 436 kts 249°
2026-05-07 10:57 43.31163 -10.18093 34952 ft 436 kts 249°
2026-05-07 10:57 43.28625 -10.25641 34937 ft 434 kts 249°
2026-05-07 10:58 43.26093 -10.33147 34953 ft 434 kts 249°
2026-05-07 10:58 43.23551 -10.40648 34950 ft 434 kts 249°
2026-05-07 10:59 43.21021 -10.48090 34952 ft 434 kts 249°
2026-05-07 10:59 43.18469 -10.55579 34950 ft 434 kts 249°
2026-05-07 11:00 43.15921 -10.63048 34951 ft 432 kts 248°
2026-05-07 11:00 43.13369 -10.70499 34955 ft 432 kts 248°
2026-05-07 11:01 43.10812 -10.77930 34951 ft 431 kts 248°
2026-05-07 11:01 43.08256 -10.85346 34954 ft 431 kts 248°
2026-05-07 11:02 43.05700 -10.92753 34956 ft 431 kts 248°
2026-05-07 11:02 43.03141 -11.00139 34951 ft 428 kts 248°
2026-05-07 11:03 43.00586 -11.07494 34953 ft 428 kts 248°
2026-05-07 11:03 42.98029 -11.14843 34953 ft 428 kts 248°
2026-05-07 11:04 42.95463 -11.22187 34957 ft 428 kts 248°
2026-05-07 11:04 42.92894 -11.29526 34958 ft 428 kts 248°
2026-05-07 11:05 42.90328 -11.36847 34951 ft 427 kts 248°
2026-05-07 11:05 42.87762 -11.44145 34958 ft 427 kts 247°
2026-05-07 11:06 42.85189 -11.51435 34959 ft 427 kts 247°
2026-05-07 11:06 42.82631 -11.58666 34953 ft 426 kts 247°
2026-05-07 11:07 42.80054 -11.65932 34968 ft 426 kts 247°
2026-05-07 11:07 42.77473 -11.73195 34966 ft 426 kts 247°
2026-05-07 11:08 42.74888 -11.80446 34970 ft 426 kts 247°
2026-05-07 11:08 42.72298 -11.87694 34959 ft 426 kts 247°
2026-05-07 11:09 42.69702 -11.94931 34961 ft 426 kts 247°
2026-05-07 11:09 42.66453 -12.01696 34960 ft 435 kts 230°
2026-05-07 11:10 42.61909 -12.07169 34969 ft 437 kts 224°
2026-05-07 11:10 42.57303 -12.12526 34954 ft 436 kts 225°
2026-05-07 11:11 42.52726 -12.17897 34958 ft 435 kts 225°
2026-05-07 11:11 42.48154 -12.23274 34960 ft 435 kts 225°
2026-05-07 11:12 42.43585 -12.28644 34960 ft 435 kts 225°
2026-05-07 11:12 42.39008 -12.33999 34960 ft 435 kts 225°
2026-05-07 11:13 42.35206 -12.38445 34965 ft 435 kts 225°
2026-05-07 11:13 42.30637 -12.43773 34958 ft 432 kts 224°
2026-05-07 11:14 42.26096 -12.49061 34964 ft 431 kts 224°
2026-05-07 11:14 42.21553 -12.54346 34964 ft 431 kts 224°
2026-05-07 11:15 42.17008 -12.59619 34961 ft 431 kts 224°
2026-05-07 11:15 42.12458 -12.64882 34962 ft 431 kts 224°
2026-05-07 11:16 42.07906 -12.70140 34964 ft 431 kts 224°
2026-05-07 11:16 42.03352 -12.75388 34963 ft 431 kts 224°
2026-05-07 11:17 41.98836 -12.80596 34966 ft 430 kts 223°
2026-05-07 11:17 41.94297 -12.85804 34963 ft 429 kts 223°
2026-05-07 11:18 41.89756 -12.91012 34960 ft 429 kts 223°
2026-05-07 11:18 41.85209 -12.96204 34958 ft 428 kts 223°
2026-05-07 11:19 41.80675 -13.01383 34962 ft 428 kts 223°
2026-05-07 11:19 41.76135 -13.06558 34965 ft 428 kts 223°
2026-05-07 11:20 41.71591 -13.11724 34964 ft 428 kts 223°
2026-05-07 11:20 41.67053 -13.16875 34964 ft 426 kts 223°
2026-05-07 11:21 41.62533 -13.22003 34957 ft 426 kts 223°
2026-05-07 11:21 41.58018 -13.27109 34961 ft 425 kts 223°
2026-05-07 11:22 41.53503 -13.32205 34961 ft 425 kts 223°
2026-05-07 11:22 41.48988 -13.37296 34962 ft 425 kts 223°
2026-05-07 11:23 41.44469 -13.42378 34961 ft 425 kts 222°
2026-05-07 11:23 41.39948 -13.47445 34949 ft 425 kts 223°
2026-05-07 11:24 41.35473 -13.52464 34966 ft 422 kts 222°
2026-05-07 11:24 41.30988 -13.57480 34965 ft 421 kts 222°
2026-05-07 11:25 41.26500 -13.62490 34964 ft 421 kts 222°
2026-05-07 11:25 41.22012 -13.67489 34968 ft 421 kts 222°
2026-05-07 11:26 41.17519 -13.72486 34963 ft 421 kts 222°
2026-05-07 11:26 41.13031 -13.77467 34959 ft 419 kts 222°
2026-05-07 11:27 41.08557 -13.82422 34965 ft 419 kts 222°
2026-05-07 11:27 41.04081 -13.87373 34970 ft 418 kts 221°
2026-05-07 11:28 40.99629 -13.92289 34964 ft 416 kts 221°
2026-05-07 11:28 40.95174 -13.97197 34962 ft 417 kts 221°
2026-05-07 11:29 40.90718 -14.02095 34953 ft 416 kts 221°
2026-05-07 11:29 40.86271 -14.06979 34960 ft 416 kts 221°
2026-05-07 11:30 40.81820 -14.11855 34961 ft 415 kts 221°
2026-05-07 11:30 40.77374 -14.16722 34961 ft 415 kts 221°
2026-05-07 11:31 40.72923 -14.21583 34967 ft 416 kts 221°
2026-05-07 11:31 40.68478 -14.26426 34960 ft 413 kts 221°
2026-05-07 11:32 40.61879 -14.33603 34959 ft 411 kts 221°
2026-05-07 11:33 40.57474 -14.38390 34958 ft 411 kts 221°
2026-05-07 11:33 40.53064 -14.43167 34959 ft 411 kts 221°
2026-05-07 11:34 40.48651 -14.47940 34959 ft 411 kts 221°
2026-05-07 11:34 40.44238 -14.52699 34959 ft 411 kts 221°
2026-05-07 11:35 40.39831 -14.57451 34973 ft 408 kts 221°
2026-05-07 11:35 40.35454 -14.62160 34964 ft 406 kts 220°
2026-05-07 11:36 40.31081 -14.66856 34959 ft 406 kts 220°
2026-05-07 11:36 40.26706 -14.71546 34959 ft 406 kts 220°
2026-05-07 11:37 40.22330 -14.76229 34959 ft 406 kts 220°
2026-05-07 11:37 40.17951 -14.80909 34959 ft 406 kts 220°
2026-05-07 11:38 40.13583 -14.85563 34957 ft 404 kts 220°
2026-05-07 11:38 40.09247 -14.90179 34959 ft 405 kts 220°
2026-05-07 11:39 40.04882 -14.94822 34965 ft 404 kts 220°
2026-05-07 11:39 40.00941 -14.99976 34956 ft 402 kts 234°
2026-05-07 11:39 39.99589 -15.03171 34958 ft 404 kts 245°
2026-05-07 11:40 39.98736 -15.06676 34964 ft 408 kts 253°
2026-05-07 11:40 39.97501 -15.13897 34962 ft 408 kts 254°
2026-05-07 11:41 39.96250 -15.21112 34959 ft 408 kts 253°
2026-05-07 11:41 39.94972 -15.28309 34959 ft 408 kts 253°
2026-05-07 11:42 39.93685 -15.35505 34960 ft 408 kts 253°
2026-05-07 11:42 39.92393 -15.42700 34956 ft 408 kts 253°
2026-05-07 11:43 39.91097 -15.49887 34957 ft 408 kts 253°
2026-05-07 11:43 39.89797 -15.57075 34958 ft 408 kts 253°
2026-05-07 11:44 39.88489 -15.64255 34979 ft 408 kts 253°
2026-05-07 11:44 39.87183 -15.71434 34961 ft 407 kts 253°
2026-05-07 11:45 39.85871 -15.78599 34958 ft 407 kts 253°
2026-05-07 11:45 39.84557 -15.85760 34954 ft 407 kts 253°
2026-05-07 11:46 39.83233 -15.92924 34954 ft 407 kts 252°
2026-05-07 11:46 39.81920 -16.00027 34972 ft 407 kts 252°
2026-05-07 11:47 39.80577 -16.07246 34959 ft 408 kts 252°
2026-05-07 11:47 39.79250 -16.14373 34955 ft 408 kts 252°
2026-05-07 11:48 39.77909 -16.21550 34949 ft 408 kts 252°
2026-05-07 11:48 39.76561 -16.28720 34950 ft 408 kts 252°
2026-05-07 11:49 39.75210 -16.35889 34971 ft 408 kts 252°
2026-05-07 11:49 39.73861 -16.43027 34953 ft 406 kts 251°
2026-05-07 11:50 39.72506 -16.50151 34952 ft 406 kts 251°
2026-05-07 11:50 39.71146 -16.57275 34951 ft 406 kts 251°
2026-05-07 11:51 39.69789 -16.64384 34946 ft 405 kts 251°
2026-05-07 11:51 39.68426 -16.71472 34966 ft 405 kts 251°
2026-05-07 11:52 39.67055 -16.78580 34949 ft 407 kts 251°
2026-05-07 11:52 39.65682 -16.85703 34950 ft 407 kts 251°
2026-05-07 11:53 39.64302 -16.92814 34950 ft 407 kts 251°
2026-05-07 11:53 39.62919 -16.99928 34948 ft 407 kts 251°
2026-05-07 11:54 39.61539 -17.06994 34967 ft 408 kts 250°
2026-05-07 11:54 39.60131 -17.14182 34950 ft 413 kts 250°
2026-05-07 11:55 39.58712 -17.21395 34944 ft 413 kts 250°
2026-05-07 11:55 39.57286 -17.28605 34941 ft 413 kts 250°
2026-05-07 11:56 39.55857 -17.35815 34937 ft 413 kts 250°
2026-05-07 11:56 39.54421 -17.43033 34948 ft 416 kts 251°
2026-05-07 11:57 39.52964 -17.50336 34939 ft 420 kts 251°
2026-05-07 11:57 39.51495 -17.57678 34940 ft 421 kts 251°
2026-05-07 11:58 39.50021 -17.65011 34935 ft 421 kts 251°
2026-05-07 11:58 39.48541 -17.72339 34939 ft 421 kts 251°
2026-05-07 11:59 39.47051 -17.79694 34946 ft 426 kts 251°
2026-05-07 11:59 39.45552 -17.87077 34933 ft 427 kts 251°
2026-05-07 12:00 39.44037 -17.94512 34931 ft 428 kts 251°
2026-05-07 12:00 39.42517 -18.01949 34932 ft 427 kts 251°
2026-05-07 12:01 39.40989 -18.09378 34956 ft 427 kts 251°
2026-05-07 12:01 39.39449 -18.16840 34932 ft 431 kts 252°
2026-05-07 12:02 39.37904 -18.24326 34925 ft 431 kts 252°
2026-05-07 12:02 39.36351 -18.31809 34921 ft 431 kts 252°
2026-05-07 12:03 39.34794 -18.39288 34918 ft 431 kts 252°
2026-05-07 12:03 39.33233 -18.46767 34927 ft 432 kts 252°
2026-05-07 12:04 39.31658 -18.54270 34919 ft 433 kts 252°
2026-05-07 12:04 39.30089 -18.61724 34917 ft 433 kts 252°
2026-05-07 12:05 39.28504 -18.69234 34917 ft 434 kts 252°
2026-05-07 12:05 39.26914 -18.76730 34914 ft 433 kts 252°
2026-05-07 12:06 39.25322 -18.84228 34913 ft 433 kts 252°
2026-05-07 12:06 39.23980 -18.90508 34908 ft 433 kts 252°
2026-05-07 12:07 39.22388 -18.97947 34909 ft 433 kts 252°
2026-05-07 12:07 39.20781 -19.05435 34904 ft 433 kts 252°
2026-05-07 12:08 39.19169 -19.12920 34918 ft 433 kts 252°
2026-05-07 12:08 39.17544 -19.20415 34904 ft 435 kts 252°
2026-05-07 12:09 39.15914 -19.27911 34900 ft 435 kts 252°
2026-05-07 12:09 39.14282 -19.35412 34902 ft 435 kts 252°
2026-05-07 12:10 39.12646 -19.42909 34891 ft 435 kts 252°
2026-05-07 12:10 39.11004 -19.50398 34898 ft 435 kts 252°
2026-05-07 12:11 39.09355 -19.57892 34887 ft 435 kts 252°
2026-05-07 12:11 39.07701 -19.65388 34884 ft 435 kts 252°
2026-05-07 12:12 39.06043 -19.72872 34884 ft 435 kts 252°
2026-05-07 12:12 39.04382 -19.80354 34891 ft 435 kts 252°
2026-05-07 12:13 39.02720 -19.87831 34888 ft 435 kts 253°
2026-05-07 12:13 39.01061 -19.95250 34874 ft 435 kts 253°
2026-05-07 12:14 38.99229 -20.02645 34870 ft 434 kts 248°
2026-05-07 12:14 38.96994 -20.09839 34866 ft 434 kts 247°
2026-05-07 12:15 38.94752 -20.17036 34867 ft 434 kts 248°
2026-05-07 12:15 38.92532 -20.24228 34864 ft 433 kts 248°
2026-05-07 12:16 38.90304 -20.31416 34864 ft 433 kts 248°
2026-05-07 12:16 38.88069 -20.38602 34858 ft 433 kts 248°
2026-05-07 12:17 38.85834 -20.45778 34857 ft 433 kts 248°
2026-05-07 12:17 38.83595 -20.52953 34848 ft 433 kts 249°
2026-05-07 12:18 38.81354 -20.60114 34847 ft 433 kts 249°
2026-05-07 12:18 38.79109 -20.67267 34844 ft 433 kts 249°
2026-05-07 12:19 38.76855 -20.74418 34842 ft 433 kts 249°
2026-05-07 12:19 38.74602 -20.81562 34845 ft 432 kts 249°
2026-05-07 12:20 38.72352 -20.88689 34835 ft 431 kts 249°
2026-05-07 12:20 38.70090 -20.95806 34838 ft 431 kts 249°
2026-05-07 12:21 38.67827 -21.02917 34833 ft 431 kts 249°
2026-05-07 12:21 38.65578 -21.09984 34835 ft 432 kts 249°
2026-05-07 12:22 38.63306 -21.17088 34829 ft 430 kts 249°
2026-05-07 12:22 38.61043 -21.24160 34828 ft 429 kts 249°
2026-05-07 12:23 38.58777 -21.31223 34824 ft 430 kts 249°
2026-05-07 12:23 38.56498 -21.38278 34823 ft 429 kts 249°
2026-05-07 12:24 38.54221 -21.45333 34824 ft 429 kts 249°
2026-05-07 12:24 38.51939 -21.52385 34823 ft 429 kts 250°
2026-05-07 12:25 38.49652 -21.59424 34813 ft 429 kts 250°
2026-05-07 12:25 38.47363 -21.66469 34816 ft 430 kts 250°
2026-05-07 12:26 38.45067 -21.73506 34815 ft 430 kts 250°
2026-05-07 12:26 38.42767 -21.80540 34813 ft 429 kts 250°
2026-05-07 12:27 38.40473 -21.87544 34809 ft 427 kts 251°
2026-05-07 12:27 38.38178 -21.94530 34812 ft 427 kts 251°
2026-05-07 12:28 38.35898 -22.01464 34809 ft 427 kts 251°
2026-05-07 12:28 38.33596 -22.08442 34809 ft 427 kts 251°
2026-05-07 12:29 38.31289 -22.15407 34801 ft 426 kts 251°
2026-05-07 12:29 38.28986 -22.22364 34804 ft 426 kts 251°
2026-05-07 12:30 38.26679 -22.29315 34805 ft 426 kts 251°
2026-05-07 12:30 38.24366 -22.36261 34802 ft 426 kts 251°
2026-05-07 12:31 38.22047 -22.43203 34803 ft 426 kts 251°
2026-05-07 12:31 38.19729 -22.50126 34788 ft 424 kts 252°
2026-05-07 12:32 38.17418 -22.57012 34791 ft 423 kts 252°
2026-05-07 12:32 38.15104 -22.63888 34791 ft 423 kts 252°
2026-05-07 12:33 38.11626 -22.74197 34788 ft 423 kts 252°
2026-05-07 12:33 38.09318 -22.81015 34782 ft 422 kts 252°
2026-05-07 12:34 38.07009 -22.87820 34782 ft 419 kts 252°
2026-05-07 12:34 38.04701 -22.94610 34782 ft 419 kts 252°
2026-05-07 12:35 38.02387 -23.01397 34778 ft 419 kts 252°
2026-05-07 12:35 38.00069 -23.08180 34780 ft 419 kts 252°
2026-05-07 12:36 37.97752 -23.14948 34771 ft 417 kts 253°
2026-05-07 12:36 37.95497 -23.21708 34778 ft 413 kts 257°
2026-05-07 12:37 37.94605 -23.28741 34784 ft 402 kts 272°
2026-05-07 12:37 37.94429 -23.35815 34781 ft 402 kts 272°
2026-05-07 12:38 37.94058 -23.42876 34758 ft 401 kts 265°
2026-05-07 12:38 37.93448 -23.46320 34065 ft 402 kts 263°
2026-05-07 12:38 37.92768 -23.49746 33401 ft 399 kts 263°
2026-05-07 12:39 37.92098 -23.53130 32787 ft 393 kts 264°
2026-05-07 12:39 37.91452 -23.56462 32206 ft 387 kts 264°
2026-05-07 12:39 37.90824 -23.59746 31649 ft 381 kts 264°
2026-05-07 12:39 37.90207 -23.62991 31111 ft 376 kts 264°
2026-05-07 12:40 37.89609 -23.66142 30595 ft 371 kts 264°
2026-05-07 12:40 37.89009 -23.69291 30068 ft 366 kts 264°
2026-05-07 12:40 37.88417 -23.72401 29472 ft 361 kts 264°
2026-05-07 12:40 37.87832 -23.75464 28631 ft 356 kts 264°
2026-05-07 12:41 37.87256 -23.78484 27767 ft 351 kts 264°
2026-05-07 12:41 37.86683 -23.81479 26865 ft 349 kts 263°
2026-05-07 12:41 37.86113 -23.84460 26000 ft 347 kts 263°
2026-05-07 12:41 37.85544 -23.87424 25150 ft 346 kts 262°
2026-05-07 12:42 37.84977 -23.90378 24337 ft 345 kts 262°
2026-05-07 12:42 37.84413 -23.93312 23607 ft 342 kts 261°
2026-05-07 12:42 37.83855 -23.96203 23153 ft 335 kts 261°
2026-05-07 12:42 37.83310 -23.99028 22711 ft 328 kts 261°
2026-05-07 12:43 37.82773 -24.01804 22291 ft 321 kts 261°
2026-05-07 12:43 37.82248 -24.04518 21884 ft 315 kts 261°
2026-05-07 12:43 37.81731 -24.07196 21477 ft 313 kts 261°
2026-05-07 12:43 37.81217 -24.09849 21107 ft 309 kts 261°
2026-05-07 12:44 37.80714 -24.12446 20760 ft 307 kts 261°
2026-05-07 12:44 37.80208 -24.15056 20391 ft 305 kts 261°
2026-05-07 12:44 37.79703 -24.17655 20006 ft 303 kts 261°
2026-05-07 12:44 37.79200 -24.20235 19595 ft 301 kts 261°
2026-05-07 12:45 37.78700 -24.22799 19175 ft 299 kts 260°
2026-05-07 12:45 37.78202 -24.25346 18765 ft 298 kts 260°
2026-05-07 12:45 37.77706 -24.27881 18384 ft 296 kts 260°
2026-05-07 12:45 37.77212 -24.30399 18010 ft 295 kts 259°
2026-05-07 12:46 37.76720 -24.32910 17612 ft 293 kts 259°
2026-05-07 12:46 37.76228 -24.35405 17242 ft 293 kts 259°
2026-05-07 12:46 37.75738 -24.37900 16888 ft 292 kts 259°
2026-05-07 12:46 37.75249 -24.40381 16542 ft 290 kts 260°
2026-05-07 12:47 37.74762 -24.42850 16185 ft 289 kts 260°
2026-05-07 12:47 37.74278 -24.45307 15846 ft 288 kts 260°
2026-05-07 12:47 37.73795 -24.47760 15522 ft 287 kts 260°
2026-05-07 12:47 37.73311 -24.50202 15216 ft 286 kts 260°
2026-05-07 12:48 37.72828 -24.52638 14893 ft 285 kts 260°
2026-05-07 12:48 37.72347 -24.55065 14567 ft 284 kts 261°
2026-05-07 12:48 37.71868 -24.57483 14240 ft 283 kts 261°
2026-05-07 12:48 37.71390 -24.59888 13929 ft 282 kts 261°
2026-05-07 12:49 37.70915 -24.62275 13615 ft 279 kts 261°
2026-05-07 12:49 37.70452 -24.64601 13283 ft 275 kts 260°
2026-05-07 12:49 37.69985 -24.66941 12956 ft 275 kts 261°
2026-05-07 12:49 37.69514 -24.69300 12642 ft 273 kts 260°
2026-05-07 12:50 37.69058 -24.71582 12327 ft 271 kts 261°
2026-05-07 12:50 37.68599 -24.73870 12007 ft 267 kts 260°
2026-05-07 12:50 37.68146 -24.76133 11700 ft 264 kts 260°
2026-05-07 12:50 37.67697 -24.78372 11402 ft 261 kts 261°
2026-05-07 12:51 37.67255 -24.80576 11103 ft 257 kts 260°
2026-05-07 12:51 37.66819 -24.82749 10805 ft 255 kts 260°
2026-05-07 12:51 37.66383 -24.84918 10531 ft 254 kts 260°
2026-05-07 12:51 37.65952 -24.87055 10291 ft 248 kts 261°
2026-05-07 12:52 37.65533 -24.89134 10117 ft 241 kts 261°
2026-05-07 12:52 37.65118 -24.91194 9960 ft 242 kts 261°
2026-05-07 12:52 37.64705 -24.93236 9720 ft 239 kts 261°
2026-05-07 12:52 37.64294 -24.95274 9421 ft 240 kts 261°
2026-05-07 12:53 37.63881 -24.97317 9125 ft 239 kts 261°
2026-05-07 12:53 37.63470 -24.99347 8828 ft 240 kts 261°
2026-05-07 12:53 37.63057 -25.01378 8538 ft 238 kts 261°
2026-05-07 12:53 37.62645 -25.03403 8246 ft 238 kts 261°
2026-05-07 12:54 37.62235 -25.05425 7968 ft 237 kts 261°
2026-05-07 12:54 37.61827 -25.07436 7693 ft 236 kts 261°
2026-05-07 12:54 37.61418 -25.09440 7423 ft 236 kts 261°
2026-05-07 12:54 37.61010 -25.11443 7140 ft 235 kts 262°
2026-05-07 12:55 37.60610 -25.13407 6859 ft 234 kts 262°
2026-05-07 12:55 37.60206 -25.15391 6568 ft 233 kts 262°
2026-05-07 12:55 37.59801 -25.17367 6291 ft 232 kts 262°
2026-05-07 12:55 37.59397 -25.19345 5989 ft 238 kts 262°
2026-05-07 12:56 37.59088 -25.21456 5751 ft 243 kts 274°
2026-05-07 12:56 37.59386 -25.23488 5450 ft 233 kts 293°
2026-05-07 12:56 37.59998 -25.25360 5160 ft 229 kts 296°
2026-05-07 12:56 37.60619 -25.27197 4879 ft 226 kts 295°
2026-05-07 12:57 37.61221 -25.29014 4581 ft 223 kts 295°
2026-05-07 12:57 37.61808 -25.30814 4277 ft 221 kts 295°
2026-05-07 12:57 37.62383 -25.32595 3991 ft 218 kts 295°
2026-05-07 12:57 37.62974 -25.34336 3703 ft 214 kts 298°
2026-05-07 12:58 37.63584 -25.36108 3550 ft 216 kts 295°
2026-05-07 12:58 37.64118 -25.37785 3531 ft 195 kts 296°
2026-05-07 12:58 37.64594 -25.39292 3535 ft 179 kts 296°
2026-05-07 12:58 37.65057 -25.40754 3550 ft 179 kts 296°
2026-05-07 12:59 37.65505 -25.42180 3563 ft 172 kts 297°
2026-05-07 12:59 37.65952 -25.43593 3572 ft 173 kts 296°
2026-05-07 12:59 37.66243 -25.44520 3576 ft 170 kts 297°
2026-05-07 12:59 37.66426 -25.45099 3585 ft 170 kts 297°
2026-05-07 13:00 37.66756 -25.46153 3649 ft 151 kts 296°
2026-05-07 13:00 37.67156 -25.47415 3618 ft 153 kts 297°
2026-05-07 13:00 37.67550 -25.48664 3532 ft 152 kts 297°
2026-05-07 13:00 37.67950 -25.49930 3369 ft 158 kts 296°
2026-05-07 13:01 37.68356 -25.51221 3183 ft 159 kts 296°
2026-05-07 13:01 37.68762 -25.52511 2969 ft 157 kts 296°
2026-05-07 13:01 37.69165 -25.53788 2756 ft 156 kts 296°
2026-05-07 13:01 37.69564 -25.55056 2574 ft 152 kts 296°
2026-05-07 13:02 37.69919 -25.56188 2405 ft 126 kts 297°
2026-05-07 13:02 37.70227 -25.57164 2217 ft 118 kts 298°
2026-05-07 13:02 37.70529 -25.58124 2052 ft 116 kts 299°
2026-05-07 13:02 37.70832 -25.59076 1846 ft 117 kts 298°
2026-05-07 13:03 37.71136 -25.60039 1623 ft 122 kts 297°
2026-05-07 13:03 37.71443 -25.61028 1478 ft 121 kts 296°
2026-05-07 13:03 37.71752 -25.62027 1312 ft 121 kts 296°
2026-05-07 13:03 37.72041 -25.63010 1205 ft 118 kts 296°
2026-05-07 13:04 37.72347 -25.63963 1075 ft 120 kts 298°
2026-05-07 13:04 37.72702 -25.64907 906 ft 119 kts 296°
2026-05-07 13:04 37.73002 -25.65890 720 ft 122 kts 292°
2026-05-07 13:04 37.73311 -25.66892 549 ft 121 kts 291°
2026-05-07 13:05 37.73601 -25.67889 358 ft 121 kts 292°
2026-05-07 13:05 37.73925 -25.68904 213 ft 123 kts 292°
2026-05-07 13:05 37.74190 -25.69740 236 ft 69 kts 291°
2026-05-07 13:05 37.74338 -25.70200 250 ft 50 kts 292°
2026-05-07 13:06 37.74466 -25.70608 267 ft 50 kts 290°
2026-05-07 13:06 37.74535 -25.70818 275 ft 15 kts 293°
2026-05-07 13:06 37.74634 -25.70829 277 ft 17 kts 16°
2026-05-07 13:06 37.74726 -25.70865 277 ft 13 kts 294°
2026-05-07 13:07 37.74761 -25.70982 277 ft 15 kts 292°
2026-05-07 13:07 37.74803 -25.71112 277 ft 16 kts 292°
2026-05-07 13:07 37.74836 -25.71139 267 ft 7 kts 16°
2026-05-07 13:07 37.74872 -25.71119 277 ft 5 kts 23°
2026-05-07 13:08 37.74875 -25.71117 277 ft 0 kts 21°
2026-05-07 13:08 37.74876 -25.71117 277 ft 1 kts 21°
2026-05-07 13:08 37.74883 -25.71113 277 ft 0 kts 21°